Simultaneous Nadir Overpasses (SNOs) Predictions

Prediction of SNOs between GOES-17 and METOP-B Satellite Orbit:

Table of predicted SNOs for the next 14.0 days since TLE Epoch: 5/31/2025
Index Date Time (GOES-17) GOES-17 Lat,Lon METOP-B Lat,Lon Distance(km) Time Diff (sec)
1 06/01/2025 03:51:49 -0.01,-104.37 0.61,-101.66 309.99 80
2 06/02/2025 16:10:40 0.01,-104.44 0.39,-106.24 205.14 80
3 06/03/2025 15:52:40 0.01,-104.44 -0.68,-101.25 363.18 80
4 06/05/2025 04:11:40 -0.01,-104.38 -0.33,-105.87 169.17 80
5 06/06/2025 03:48:20 -0.01,-104.38 0.74,-100.88 399.10 80
6 06/07/2025 16:07:11 0.01,-104.45 0.26,-105.46 116.00 80
7 06/08/2025 15:49:12 0.01,-104.45 -0.87,-100.48 452.25 80
8 06/10/2025 04:08:11 -0.00,-104.39 -0.18,-105.09 80.29 80
9 06/11/2025 03:44:51 -0.00,-104.39 0.96,-100.11 487.65 80
10 06/12/2025 16:03:43 0.00,-104.45 0.04,-104.70 28.06 80
